Theta_e
358 353 353 352 357 358 360 360 359 362 362 361 362 362 362 363 363 362 362 363 360 360 358 356 359 359 355 357 357 358 359 358 359 360 360 360 359 360 360 360 359 359 358 357 357 358 358 358 357 357 357 357 357 356 356 356 356 356 356 355 355 355 355 354 354 354 354 354 354 354 354 354 354 354 354 354 354 355 354 354 355 355 354 354 354
357 359 356 355 357 356 357 356 357 361 361 359 361 361 360 362 363 363 362 363 359 357 357 355 354 356 358 356 354 354 358 356 359 359 361 359 359 360 361 360 360 359 358 357 357 357 358 358 358 357 357 357 357 355 356 355 355 355 355 355 354 354 354 354 355 354 354 355 354 354 354 354 354 354 354 354 354 354 354 354 354 354 355 354 354
364 363 359 354 358 355 356 353 354 356 360 360 361 362 362 363 363 365 361 363 363 358 359 356 356 355 356 355 356 358 356 359 356 355 355 359 359 361 362 361 361 360 359 358 357 357 358 357 357 357 357 357 357 356 356 355 355 354 356 356 356 356 355 355 355 355 355 355 355 354 355 355 355 355 355 355 354 354 355 355 354 354 355 355 354
366 361 361 360 356 355 356 355 357 359 361 358 359 361 364 362 363 367 365 366 365 363 367 364 354 353 357 352 355 354 355 356 352 354 357 359 364 361 361 362 362 361 360 359 358 358 358 357 356 356 357 356 356 356 356 356 356 356 356 356 357 356 356 356 356 356 356 355 355 356 355 355 355 355 355 355 354 354 354 355 354 354 354 354 354
370 365 364 362 358 359 358 354 360 359 359 357 356 359 361 359 359 363 363 360 359 361 358 355 354 355 353 354 354 355 355 357 355 354 356 358 357 358 360 360 362 361 360 360 360 358 358 357 357 356 356 356 356 356 355 356 356 357 357 356 356 356 357 357 356 356 356 356 355 355 355 355 355 355 355 354 354 354 354 355 354 354 354 354 354
370 369 368 365 360 361 363 359 359 363 363 364 366 365 362 361 358 359 359 358 355 356 358 354 353 353 354 354 355 358 357 354 355 354 356 358 358 359 360 363 362 361 361 360 359 359 360 359 359 358 357 356 356 356 355 355 355 355 356 355 355 356 356 356 356 356 356 356 356 356 355 354 354 355 355 355 354 354 354 354 354 354 354 354 354
366 370 369 363 366 363 363 366 363 367 368 365 364 362 359 362 359 357 359 355 355 356 354 353 353 352 356 357 355 356 356 355 357 357 359 361 362 359 359 359 361 361 360 360 361 360 361 360 360 360 359 359 357 357 357 356 356 356 357 356 356 357 357 356 355 355 355 356 355 355 355 355 355 355 355 355 354 354 354 354 354 354 354 354 353
374 371 369 370 366 362 368 368 368 370 367 366 368 360 363 361 359 356 353 349 351 351 355 354 354 353 354 356 356 358 356 357 357 355 357 361 361 361 361 361 361 360 362 365 362 363 361 361 360 360 360 360 360 359 359 358 357 358 358 357 357 357 357 356 356 356 356 355 356 355 355 355 355 355 355 355 354 354 354 354 354 353 353 353 353
379 372 369 365 367 362 364 366 367 371 368 366 362 364 364 358 363 358 353 352 344 344 347 352 351 351 350 349 350 355 357 360 357 357 356 361 358 359 361 362 364 361 363 362 362 364 361 362 362 361 361 361 360 360 359 359 359 358 359 358 358 358 357 357 357 357 356 357 356 356 356 356 355 355 355 354 354 354 353 353 353 352 354 353 352
378 378 371 365 366 365 367 369 370 369 369 365 364 365 365 362 358 355 350 348 345 343 344 347 348 348 349 347 350 351 351 356 356 359 359 358 359 361 361 360 362 359 361 361 362 363 363 362 361 361 361 361 360 360 360 360 359 359 358 358 358 357 357 357 357 357 357 356 356 356 355 355 355 354 354 354 354 353 353 352 352 352 353 351 351
376 375 375 372 365 367 369 370 370 372 370 364 363 366 365 364 354 355 354 350 347 348 347 346 346 346 344 345 345 351 352 350 359 359 358 357 357 358 358 361 363 363 365 363 363 363 364 363 362 362 362 361 361 361 361 360 360 359 359 358 358 358 357 357 357 356 356 356 356 355 355 355 354 354 354 353 353 352 352 351 351 352 351 351 351
373 378 371 372 367 368 366 368 367 368 368 363 362 362 364 365 355 348 350 349 349 349 347 347 346 346 346 345 347 350 350 350 352 354 358 357 358 359 357 359 362 362 360 362 361 360 362 363 362 360 362 361 362 362 361 361 360 360 360 359 358 357 357 357 357 356 357 357 356 355 355 355 355 353 352 352 352 352 352 351 351 351 351 350 350
372 374 373 369 370 372 369 367 368 368 368 367 367 366 367 367 361 357 347 347 343 343 345 348 346 343 347 344 347 348 350 348 350 350 351 355 357 356 357 359 360 358 360 360 358 357 357 359 357 357 357 364 362 362 361 361 361 360 360 359 358 357 356 356 356 356 356 357 356 356 356 355 353 351 352 352 352 351 351 350 350 351 350 349 348
369 372 371 370 368 367 368 371 366 370 367 366 366 365 367 368 360 352 351 346 344 344 343 347 341 339 338 340 344 346 349 348 347 348 349 351 355 357 358 354 354 355 357 358 356 352 353 355 358 356 357 359 363 362 363 361 361 360 360 359 359 357 357 356 356 356 356 356 354 357 356 354 352 350 351 351 351 350 350 349 349 350 349 348 345
368 370 367 368 366 370 367 372 368 365 369 371 366 371 368 363 358 351 345 347 347 348 346 348 340 342 344 342 337 338 344 345 346 347 347 350 350 351 351 351 350 353 354 355 354 356 351 354 357 357 356 356 357 357 359 359 359 362 360 359 359 358 357 357 355 354 355 355 354 359 356 355 353 351 351 352 350 348 350 349 349 349 348 348 346
366 366 366 367 366 366 368 370 372 367 366 369 367 366 367 363 360 354 351 341 339 342 347 349 348 344 336 338 339 338 334 339 342 345 346 346 347 347 345 349 348 352 351 352 352 355 355 357 356 356 356 354 355 355 355 358 363 363 362 360 358 357 357 356 357 356 354 353 354 358 356 356 353 350 351 352 350 348 349 349 349 349 347 348 345
367 366 365 366 366 368 365 367 370 373 370 371 369 365 365 364 366 357 351 345 341 342 346 347 347 350 346 340 337 336 334 337 339 340 346 345 346 344 339 346 346 348 352 350 351 353 354 354 357 359 360 359 358 354 353 359 365 365 363 362 359 358 358 357 356 356 357 356 355 356 356 355 353 351 349 351 352 349 349 348 348 348 348 348 347
370 370 366 365 367 367 367 365 367 370 368 365 368 366 364 365 364 361 351 350 351 344 342 352 349 350 348 344 344 338 337 342 341 336 349 345 339 340 344 348 347 348 352 351 350 352 349 353 358 358 360 360 358 356 355 357 359 354 361 364 361 359 359 357 357 357 357 356 355 355 356 355 354 351 349 349 349 351 352 350 348 348 347 346 346
365 369 368 367 368 370 368 366 363 365 365 368 367 365 362 363 363 361 354 354 351 348 345 342 351 348 346 347 347 349 345 345 339 344 338 344 345 344 344 345 347 348 350 348 348 350 353 352 352 354 358 359 359 359 359 358 359 360 364 364 360 359 359 358 357 357 357 357 356 356 355 355 354 352 350 348 348 349 352 351 349 349 349 349 346
366 368 370 369 370 369 369 367 363 361 363 362 364 363 363 365 367 365 360 358 352 349 346 344 341 345 349 346 349 350 348 347 348 345 342 339 340 344 344 344 346 346 345 346 348 347 349 352 350 352 356 356 357 358 360 356 357 360 360 361 361 361 359 357 356 356 356 357 357 356 356 356 355 354 353 351 349 348 348 350 350 349 348 347 344
368 370 371 370 370 369 368 366 362 362 363 361 360 364 368 368 366 364 361 360 356 352 351 350 346 344 346 348 348 350 350 349 349 351 344 341 338 339 340 343 346 345 346 344 346 347 349 352 350 347 353 357 360 358 356 359 358 358 360 361 361 361 359 358 357 357 357 357 357 357 357 356 356 355 355 354 352 351 349 349 351 350 349 347 346
369 370 373 371 369 368 365 364 363 360 361 360 361 365 368 370 370 368 364 361 360 355 350 349 347 350 352 351 351 351 351 350 348 346 344 347 338 339 340 340 341 345 348 348 348 346 346 349 349 349 352 356 358 358 360 359 359 358 358 361 363 361 360 359 358 358 357 357 357 357 357 357 356 355 354 354 354 353 350 349 350 350 349 346 345
365 367 368 369 369 368 362 361 362 362 363 362 362 360 362 363 365 365 364 362 360 358 355 355 354 351 351 350 350 349 349 347 346 347 347 345 343 341 341 340 337 339 347 346 348 346 347 347 347 347 357 354 360 358 360 360 360 355 363 360 360 360 360 359 358 357 356 356 357 357 357 357 357 355 353 354 354 353 353 352 350 349 350 348 346
363 359 364 364 368 366 367 364 363 362 363 366 365 361 362 364 363 365 366 364 365 363 358 354 355 356 352 352 350 348 348 347 346 349 346 347 344 342 341 344 343 342 343 352 349 347 347 346 347 348 350 352 358 360 358 360 360 360 364 361 358 358 359 360 359 357 355 354 354 356 357 358 358 357 354 353 354 354 354 353 352 351 350 349 347
359 358 360 363 366 367 367 365 365 366 367 366 366 365 364 362 364 364 364 365 365 364 360 358 355 355 351 351 349 349 349 350 347 344 347 347 347 341 341 340 340 342 345 343 345 346 346 346 351 348 350 354 354 358 359 358 359 363 361 361 355 357 356 357 358 356 355 354 354 355 356 357 356 356 355 354 353 353 355 354 353 352 351 349 349
359 360 358 362 362 366 368 367 369 368 369 369 368 367 366 364 363 364 363 366 366 365 364 361 361 358 358 355 350 347 346 348 348 345 345 345 345 342 346 345 343 341 344 348 349 344 346 348 347 353 347 352 355 358 362 359 358 364 358 358 358 352 353 353 355 354 354 354 352 353 355 356 356 356 356 355 355 354 355 356 356 355 354 351 351
359 363 364 362 364 366 367 367 367 369 369 369 367 368 370 366 364 364 364 364 366 365 363 362 359 358 360 356 356 354 352 349 346 349 348 347 345 346 349 345 342 341 341 344 348 346 341 347 346 350 357 359 355 357 360 361 356 364 359 367 360 353 352 351 351 352 352 352 352 352 353 353 354 356 356 357 356 355 354 355 356 355 355 354 352
363 363 364 363 364 365 368 367 368 366 369 369 369 366 369 367 365 365 364 363 364 366 365 364 360 361 359 361 360 356 356 353 354 352 349 352 352 351 349 349 346 339 341 342 341 343 345 343 346 349 353 356 359 359 360 356 352 363 362 363 362 360 352 350 349 348 348 348 350 350 350 351 351 352 355 357 356 355 354 351 351 352 353 353 353
360 363 364 367 366 365 365 365 367 367 368 369 368 368 368 367 364 366 364 361 364 366 364 365 365 359 361 361 360 360 359 361 357 357 359 360 354 352 352 348 350 344 341 341 343 337 343 341 341 350 357 357 362 357 356 359 357 363 359 362 359 361 353 347 347 346 346 346 346 346 348 349 349 349 351 352 352 353 355 352 348 349 350 350 351
358 359 363 365 367 367 366 366 365 366 366 365 367 367 368 366 365 367 365 366 364 366 366 365 364 364 362 361 360 359 362 361 360 358 360 362 357 353 351 353 354 348 346 342 345 348 345 347 343 350 362 362 357 358 359 359 355 359 356 356 354 354 346 346 347 346 345 345 344 343 345 346 346 347 346 345 347 349 350 351 350 349 349 348 350
361 363 363 364 366 366 368 366 366 365 366 365 367 367 369 366 364 363 366 368 365 365 367 366 364 364 364 362 363 361 363 362 362 362 362 362 360 358 355 355 354 355 353 351 344 351 351 347 348 349 350 355 352 353 355 358 357 358 357 359 360 353 348 354 347 345 344 343 342 341 341 341 341 341 341 342 343 344 346 347 348 348 348 347 348
359 361 361 362 363 364 364 362 360 363 365 365 364 367 368 367 363 360 361 368 365 364 364 364 362 363 365 364 365 365 364 364 362 361 361 364 363 360 360 357 358 358 357 353 350 348 353 349 351 353 353 354 356 355 355 356 361 358 364 360 363 355 360 360 352 346 343 342 341 340 339 337 336 338 340 341 342 344 345 345 345 345 345 345 346
360 361 362 363 362 362 361 362 359 361 365 363 365 365 367 367 367 366 364 366 367 365 366 364 362 363 365 365 366 366 367 364 363 362 360 361 364 363 362 360 357 360 359 357 353 353 357 360 357 356 357 359 355 360 358 358 362 365 360 364 364 361 360 360 360 351 345 341 339 339 338 337 336 337 339 340 341 343 344 345 344 343 342 341 342
362 361 364 363 362 361 360 360 362 360 364 366 362 364 365 366 367 363 364 365 366 367 366 366 364 363 365 367 366 365 367 365 364 361 360 357 360 360 361 361 359 360 363 359 356 355 353 359 358 361 358 360 357 363 361 360 362 365 362 363 363 363 361 362 363 363 351 343 338 336 336 336 336 336 336 338 339 340 341 341 341 339 339 339 337
363 362 363 363 364 364 363 362 363 361 365 363 364 364 364 365 366 363 360 363 365 364 364 366 365 366 364 366 365 365 363 364 365 363 361 361 359 358 358 361 361 360 361 363 360 356 355 356 360 359 360 361 360 361 364 362 367 366 366 365 364 364 364 363 363 361 351 344 340 336 335 335 335 335 335 336 337 336 337 336 335 335 335 335 333
361 364 363 365 364 366 363 363 364 364 363 362 364 364 363 364 365 366 365 363 363 364 364 364 363 364 363 364 363 362 362 362 364 365 364 361 360 361 359 359 360 359 362 361 362 360 358 355 360 359 362 362 363 365 365 366 364 365 365 367 367 366 365 365 365 365 358 347 343 340 337 335 334 334 333 333 333 332 332 330 330 331 331 330 331
359 363 364 366 367 366 362 363 364 365 364 365 365 363 363 364 365 365 365 365 364 365 365 366 365 364 364 363 363 364 363 360 362 363 364 363 362 360 360 361 362 362 363 364 364 364 361 358 359 362 364 363 364 365 366 362 362 364 365 365 363 365 367 366 366 365 353 347 344 342 340 339 337 335 334 333 332 331 330 329 329 329 329 329 328
359 361 363 363 364 367 367 366 366 367 368 368 367 366 362 363 364 365 365 364 362 364 365 365 366 365 363 364 363 363 361 360 361 362 364 364 364 363 363 363 363 364 365 366 366 364 362 360 360 358 362 359 361 362 364 364 360 359 360 363 365 367 368 365 364 365 366 364 364 364 351 347 341 335 334 335 333 332 331 330 329 328 327 326 324
358 357 361 363 364 366 369 368 366 367 369 368 370 369 366 364 364 365 362 362 363 363 364 363 363 363 363 362 364 363 363 362 362 362 363 364 363 365 366 367 366 365 363 363 363 361 361 359 359 359 358 361 362 359 363 365 364 361 358 358 360 366 370 371 370 369 367 365 360 352 353 352 350 352 343 335 331 331 331 331 330 328 327 325 323
358 357 358 361 363 365 368 368 368 369 370 370 371 372 369 365 363 364 364 361 360 361 362 364 363 360 359 360 359 361 363 364 364 364 365 363 364 365 366 366 367 366 364 363 362 361 360 359 357 356 358 359 360 360 361 364 362 362 362 361 359 362 364 369 368 366 367 367 364 362 355 351 350 348 336 335 335 334 332 332 333 333 331 327 325
359 357 357 359 362 363 366 369 368 367 368 369 370 370 371 368 365 362 365 364 361 360 361 361 361 361 357 355 356 356 364 370 366 367 365 365 363 364 366 367 367 366 365 364 363 361 360 358 358 359 356 356 358 358 355 357 357 358 363 364 363 363 363 361 365 366 365 361 362 361 360 361 359 360 359 361 364 356 355 339 340 340 335 329 327
362 361 360 358 360 362 363 366 368 366 366 369 365 352 356 369 367 362 364 367 365 361 360 361 359 358 357 355 352 365 364 368 366 361 356 359 360 362 363 366 366 367 366 364 362 360 359 357 356 355 353 352 352 357 356 358 362 366 365 366 361 359 359 357 359 363 365 362 359 360 360 360 355 355 356 355 356 360 360 357 359 353 343 333 330
365 366 362 357 357 361 362 364 366 365 365 366 350 339 341 349 366 367 363 365 367 365 360 361 360 356 355 356 355 359 375 371 369 352 349 345 346 344 343 347 359 371 367 363 361 362 360 358 358 357 354 354 356 360 359 358 360 364 366 364 359 356 353 350 348 356 366 364 360 357 356 359 359 355 356 356 354 354 354 356 345 341 336 333 331
368 363 360 359 362 359 361 363 364 365 366 355 336 336 338 338 350 368 363 362 364 364 363 360 359 359 358 355 354 353 354 358 362 369 357 345 341 341 338 338 339 339 342 358 362 360 361 359 358 357 357 356 358 361 359 359 363 365 364 361 357 355 353 350 350 350 360 363 357 353 351 358 359 355 353 352 353 352 350 343 337 337 335 333 332
365 366 366 362 362 361 361 364 362 364 365 346 332 333 335 335 336 354 364 362 359 361 363 362 360 361 361 359 356 354 349 369 366 361 373 368 342 335 337 337 336 335 333 331 333 356 362 361 360 359 358 358 358 361 364 366 368 364 362 356 355 354 354 352 352 351 355 361 355 352 351 356 357 352 349 352 352 353 351 343 339 336 334 333 332
367 366 363 364 364 366 364 364 366 365 368 342 330 329 332 331 334 342 364 361 361 360 361 361 360 360 360 359 360 358 357 358 363 363 364 370 373 364 358 358 361 356 337 329 328 327 339 355 360 360 363 365 362 365 369 369 365 361 358 356 356 354 352 352 354 354 356 358 354 353 351 350 349 346 346 349 351 353 354 344 333 332 333 331 329
366 367 365 364 365 366 363 362 363 363 366 333 327 326 327 328 330 336 362 358 358 361 362 362 365 362 365 362 362 360 363 363 360 364 365 367 369 372 371 367 366 368 369 364 356 355 352 354 358 362 366 368 369 371 369 371 370 368 365 362 360 357 355 356 354 356 357 359 359 352 340 341 346 344 344 345 346 348 349 339 334 332 330 328 329
366 367 368 366 365 365 365 363 361 362 365 325 326 325 325 326 328 355 364 361 359 359 361 364 365 367 366 365 366 365 365 368 363 350 359 371 369 370 368 368 368 368 369 369 353 351 365 363 363 364 365 370 348 368 365 362 366 367 364 361 358 356 351 347 345 346 345 349 353 347 342 341 345 340 341 344 345 344 344 345 336 331 330 329 329
362 365 367 365 367 366 366 365 363 364 364 334 322 321 322 323 331 361 363 363 363 362 361 363 364 365 366 369 369 367 367 369 357 338 339 358 368 367 367 367 365 364 363 365 348 337 338 335 336 342 338 331 331 328 326 325 343 350 358 353 348 345 344 342 343 343 342 341 344 350 344 341 344 342 340 341 342 340 341 343 345 333 328 327 327
358 362 366 366 366 366 365 365 364 363 363 344 317 319 320 320 338 362 363 362 363 363 363 364 365 365 368 369 372 369 367 369 347 332 332 355 367 366 365 363 363 362 363 362 359 357 334 335 334 335 334 334 331 329 329 327 326 334 355 347 345 344 343 343 338 338 338 339 344 347 343 338 340 341 338 339 339 340 340 342 342 338 332 329 327
361 362 363 364 364 366 365 365 362 362 363 348 316 319 318 317 339 365 364 363 362 364 363 364 366 367 369 369 370 364 366 363 340 329 329 353 368 368 367 364 362 361 361 363 362 363 363 363 365 365 363 350 359 365 364 342 333 338 353 353 347 346 341 337 336 337 333 336 344 350 337 336 336 337 336 333 331 335 340 340 339 340 341 341 342
Wind_Speed
12 9 1 2 1 3 1 1 2 2 2 1 1 2 2 3 3 2 1 1 1 1 2 3 3 4 5 5 4 5 4 5 5 8 6 6 7 8 10 9 8 8 7 7 7 6 6 6 6 6 6 6 6 6 5 4 4 3 3 3 2 1 1 0 1 1 2 2 3 3 4 4 4 5 5 6 6 7 7 7 7 7 7 7 7
10 11 9 4 4 2 2 1 1 1 1 1 2 0 2 2 2 2 3 2 1 0 3 1 2 5 4 4 5 6 5 5 5 5 6 6 7 7 10 9 9 8 7 6 6 7 6 6 5 5 5 5 5 5 5 4 4 3 3 2 1 0 1 1 2 2 2 3 3 4 4 4 5 6 6 7 7 7 7 7 7 7 7 7 7
5 9 12 12 7 4 3 2 1 4 2 2 2 3 2 3 3 3 4 3 4 5 4 3 4 5 4 5 4 4 5 5 5 6 6 5 6 7 8 10 9 9 8 7 6 5 6 6 5 5 4 4 3 3 3 3 2 2 2 1 2 3 2 2 2 3 3 4 4 4 5 5 5 6 6 7 7 7 7 7 7 7 7 7 7
8 9 9 8 9 8 6 6 6 5 4 3 5 4 4 3 3 4 4 3 3 3 3 3 4 3 4 5 4 5 4 3 4 4 5 6 6 6 6 7 9 9 8 7 7 7 6 5 5 4 4 4 3 3 3 2 3 2 2 3 3 3 3 3 4 4 4 4 5 5 5 6 6 6 6 7 7 7 7 7 7 7 7 8 7
2 8 8 8 9 7 9 6 6 7 7 10 9 7 5 5 3 2 2 4 6 3 1 1 4 3 5 5 4 5 4 3 5 4 4 5 7 6 5 5 7 8 8 7 7 7 7 6 5 5 5 5 4 4 3 4 4 4 4 4 4 4 4 4 4 4 5 4 5 5 5 6 6 6 7 7 8 8 8 7 7 7 7 7 6
3 4 5 4 7 5 5 8 4 8 6 6 5 5 7 7 4 5 6 4 3 6 4 5 8 4 5 5 4 4 3 4 3 5 4 4 6 7 7 5 4 5 7 9 9 8 7 7 7 6 5 5 5 5 5 4 5 4 4 4 4 4 4 4 4 4 4 5 5 5 6 6 6 6 7 7 7 7 6 6 7 6 6 6 6
4 3 6 5 4 6 5 3 7 2 4 5 1 6 8 8 8 4 4 4 5 9 8 4 4 4 4 4 4 3 4 3 3 3 2 4 3 4 8 8 7 5 6 6 9 10 9 8 8 8 8 7 6 6 6 5 4 4 4 5 3 4 4 4 4 4 5 5 5 6 6 5 6 6 6 6 6 5 5 5 5 5 5 5 5
3 2 4 2 3 3 1 4 4 3 1 3 4 1 4 5 5 6 6 6 4 3 2 2 4 4 5 4 4 3 3 4 3 4 6 5 5 4 4 5 6 7 7 5 6 8 11 10 9 8 8 8 7 7 6 6 5 5 5 5 4 4 5 5 5 5 5 6 5 5 5 5 4 5 5 5 5 4 4 4 4 4 5 4 4
1 2 3 3 3 3 3 6 5 2 2 2 3 3 3 5 4 3 4 3 6 7 6 4 3 4 5 5 5 3 2 3 3 4 3 2 4 6 4 5 4 6 6 5 5 6 10 11 10 9 8 8 7 6 6 5 5 5 5 6 6 5 6 5 5 6 5 5 5 5 4 4 4 3 4 4 4 3 3 3 4 4 4 3 3
2 2 6 7 8 5 3 5 4 1 1 2 3 3 3 4 4 2 3 1 3 4 6 5 4 5 4 6 4 4 3 2 3 2 4 4 2 3 4 5 5 6 7 7 6 6 7 10 12 10 10 9 8 7 7 6 6 6 6 6 6 5 4 6 6 6 6 5 5 4 3 3 4 4 4 4 4 3 2 2 2 3 2 2 2
4 2 1 1 2 9 6 5 2 1 2 1 4 4 4 3 4 3 1 2 3 3 3 4 4 2 4 5 5 3 3 2 2 1 2 3 4 3 4 3 3 3 3 6 9 7 8 7 6 5 7 11 9 9 9 8 7 7 6 5 5 5 6 5 5 6 5 5 5 4 4 4 4 4 4 4 3 2 2 2 2 3 1 0 2
4 3 2 2 3 2 4 4 3 3 3 3 3 4 3 4 3 3 4 4 3 4 5 3 4 3 2 3 4 4 2 1 0 1 1 2 3 3 4 4 3 3 3 2 1 3 3 4 5 7 6 10 12 11 10 9 8 7 7 6 6 6 5 5 5 5 5 5 4 5 4 3 4 6 5 4 3 3 3 3 2 2 1 1 1
5 4 3 1 4 4 3 3 4 4 3 3 3 4 4 3 4 1 1 2 5 3 3 2 3 3 2 1 3 1 4 2 2 2 1 1 2 3 1 2 3 3 2 2 2 3 4 3 3 3 5 7 9 12 10 10 9 8 8 8 7 7 6 6 5 4 4 5 5 4 5 4 3 4 5 5 4 4 4 3 3 3 1 1 1
5 4 3 3 2 2 3 3 3 4 3 4 4 3 2 3 3 3 2 2 1 4 4 3 4 5 3 2 1 3 1 3 5 4 5 3 3 2 2 2 3 4 3 3 4 3 4 4 2 2 2 5 8 7 7 8 8 10 9 9 8 7 6 6 6 5 5 5 5 6 5 5 4 4 5 5 4 5 4 4 3 3 2 2 2
5 4 4 4 2 1 3 4 3 3 3 3 3 2 2 3 3 1 5 3 2 3 2 3 3 6 4 1 2 2 1 2 4 3 3 4 4 4 3 4 3 3 3 3 2 1 3 2 3 1 0 0 2 4 5 7 6 13 11 9 8 7 6 7 6 6 6 6 5 8 6 7 6 6 6 6 5 4 4 4 4 3 3 3 3
6 5 5 4 4 3 1 5 3 2 2 3 2 3 3 1 3 1 3 5 5 6 3 3 4 2 5 2 3 2 3 4 4 3 4 1 2 5 4 4 4 2 3 1 3 1 3 3 4 2 2 0 2 2 3 3 10 14 13 11 10 7 7 7 7 8 7 7 5 8 6 6 6 6 6 6 5 5 4 4 4 4 4 4 4
5 6 5 5 4 3 3 5 4 4 3 1 2 2 2 3 2 2 1 2 5 5 4 4 3 2 2 1 3 2 4 4 4 3 3 3 3 6 5 1 7 2 1 4 3 2 3 5 3 3 2 2 3 2 2 3 8 7 9 12 12 11 10 9 8 8 7 8 6 7 6 6 6 6 6 7 6 6 6 6 6 6 6 6 6
5 5 5 5 5 4 3 3 5 4 5 4 2 3 1 2 2 3 2 2 2 5 4 3 3 2 1 1 2 4 2 3 1 3 3 3 3 1 4 4 6 5 1 4 4 4 1 3 5 4 3 4 3 2 1 2 2 2 5 9 12 11 11 10 10 9 9 8 8 7 7 7 7 7 7 7 7 7 8 7 7 7 7 8 7
7 6 5 4 4 4 4 4 3 3 3 4 5 3 3 2 4 4 2 4 1 2 4 6 4 3 4 2 3 2 4 2 3 0 3 3 5 1 4 3 5 5 5 3 6 4 2 1 4 3 6 4 3 3 3 4 4 2 8 10 12 11 11 11 11 10 10 9 9 8 8 9 9 9 9 9 9 9 9 9 9 9 9 9 9
6 6 5 5 4 4 4 4 3 3 4 3 3 3 3 4 2 4 2 3 3 2 1 5 5 3 3 1 2 4 1 1 3 3 2 2 2 3 2 4 3 4 5 5 4 5 5 2 3 5 4 4 3 4 3 2 3 6 6 12 13 12 12 11 12 12 12 11 11 10 10 10 11 11 11 11 11 11 11 11 11 11 11 11 11
6 6 6 5 5 4 5 5 4 4 4 4 4 6 5 4 3 4 3 4 4 3 1 1 2 5 3 2 1 0 1 1 2 1 1 2 1 3 2 3 1 3 4 4 2 0 4 6 3 2 2 4 4 3 4 4 5 5 6 14 12 13 12 12 13 14 13 13 12 12 12 12 13 13 13 13 13 13 13 13 13 13 13 13 13
7 7 6 7 6 6 6 6 5 5 4 4 3 4 4 3 4 4 4 5 3 4 4 3 1 2 4 2 1 0 1 1 2 3 1 1 1 2 1 3 1 0 2 2 2 2 3 2 4 6 5 5 6 5 4 4 4 5 7 15 13 13 13 14 15 15 16 15 15 15 15 15 14 14 15 15 15 15 15 14 15 15 15 15 15
7 7 8 7 7 7 7 7 6 5 4 3 3 4 5 5 4 5 4 4 4 4 4 4 3 2 3 2 2 3 2 0 1 2 1 1 1 2 2 4 5 2 2 3 2 4 4 4 4 3 2 2 2 3 4 5 6 4 11 14 14 14 14 15 15 17 16 16 17 17 17 17 17 17 17 17 17 17 17 16 16 16 17 16 16
7 7 8 9 7 7 7 6 5 5 5 4 4 3 3 5 4 4 4 4 4 4 4 4 5 4 4 6 4 3 2 2 1 3 2 1 1 2 1 1 1 2 1 3 4 3 2 3 2 2 2 2 2 2 3 3 5 10 10 13 14 15 15 15 17 16 17 16 16 16 17 17 18 18 18 18 18 18 18 18 18 17 17 17 17
7 7 7 9 8 7 7 6 5 5 4 5 4 3 3 1 4 4 4 5 4 4 4 5 5 5 4 4 4 2 2 1 1 3 1 2 2 2 4 4 2 1 2 3 3 2 3 3 1 1 1 1 2 3 4 5 5 12 13 12 16 15 15 15 16 16 17 17 17 17 17 17 17 17 17 18 18 18 18 18 18 18 18 18 18
8 8 7 8 8 8 7 7 6 5 4 4 4 4 3 3 4 4 5 4 4 5 4 5 4 4 2 2 1 3 3 3 4 2 3 2 2 2 3 2 4 2 1 2 1 4 4 4 3 2 2 2 2 3 4 5 6 14 16 11 14 17 17 16 17 16 17 18 18 18 18 18 18 18 17 17 18 17 18 18 19 19 19 19 19
8 8 8 8 8 8 8 8 7 6 6 6 5 5 4 4 4 4 4 5 5 4 4 5 5 4 4 3 2 2 0 1 2 3 1 1 1 2 1 2 3 3 1 2 2 4 2 1 2 4 3 2 3 3 4 5 3 9 13 9 7 15 17 17 17 18 18 19 19 19 19 19 18 18 18 18 18 19 19 19 19 19 20 20 20
8 8 9 8 8 8 8 8 8 8 7 6 6 5 6 5 5 5 6 4 5 6 4 5 5 5 5 3 2 3 1 1 1 2 2 3 2 1 1 2 3 3 3 3 4 1 2 4 5 2 5 4 4 4 5 6 7 10 11 7 8 8 16 18 19 19 19 19 19 19 19 19 19 19 18 18 19 19 21 21 21 20 20 20 20
8 8 9 9 8 9 8 8 8 8 8 7 7 6 6 6 6 5 6 6 5 6 5 4 5 5 5 5 4 3 2 0 1 2 1 1 2 1 2 3 2 3 3 3 3 4 5 7 2 5 4 5 4 4 5 6 6 7 7 8 8 8 11 18 19 19 19 19 19 19 19 20 20 20 21 21 22 22 21 22 21 21 21 21 21
9 9 9 10 9 10 8 8 8 8 8 8 8 7 7 6 6 6 6 5 5 5 5 5 5 4 4 4 5 4 4 3 4 3 2 3 3 3 3 3 3 4 3 4 4 4 4 4 6 2 4 4 4 6 7 7 8 9 8 8 9 9 12 13 17 19 19 19 19 19 20 20 20 20 21 21 22 22 23 23 22 22 23 22 22
9 8 9 10 10 10 9 9 8 8 9 8 8 7 7 7 7 7 6 6 5 5 5 6 5 5 5 5 3 3 2 3 2 4 4 4 4 4 4 4 4 4 4 4 5 4 4 5 5 7 4 4 6 7 7 6 6 10 9 8 9 12 14 12 13 15 17 18 18 18 19 20 20 20 20 21 21 22 22 23 23 23 24 24 24
11 11 11 11 11 11 10 10 10 10 9 9 9 8 7 7 7 7 7 7 7 7 6 6 6 5 6 5 5 4 3 3 4 4 3 4 4 4 5 4 5 5 4 5 6 7 5 7 7 7 8 8 7 7 8 7 6 9 7 8 9 11 10 8 14 15 16 17 17 18 18 19 19 20 21 21 22 22 22 23 23 24 24 24 24
11 12 12 11 11 11 11 10 11 9 9 9 8 7 7 7 7 6 6 7 8 7 6 7 7 6 6 6 6 6 5 5 5 5 5 6 6 5 5 5 5 5 5 6 7 7 6 6 7 7 8 8 9 7 9 9 8 6 8 9 9 10 10 10 10 12 14 16 18 19 19 20 21 21 22 22 22 22 22 23 24 24 23 23 23
12 13 13 12 12 12 12 12 10 11 9 9 9 8 8 9 9 7 8 7 7 8 7 7 7 6 6 6 6 7 7 7 6 6 6 6 6 7 6 6 6 6 6 6 6 7 8 6 7 7 8 8 9 8 9 9 9 8 10 9 9 9 10 10 9 10 12 12 14 18 19 20 21 21 22 22 22 22 23 24 24 24 24 24 24
13 12 13 13 12 12 12 11 11 11 10 11 10 10 9 9 9 9 8 9 8 9 9 8 8 7 8 7 8 7 6 7 7 7 7 7 6 6 6 5 6 6 6 6 6 8 9 8 7 8 7 7 8 8 9 9 8 9 9 10 10 9 9 10 10 10 9 10 11 14 17 19 20 21 21 22 22 23 24 24 23 23 24 24 24
13 12 13 13 13 12 12 12 12 12 12 11 11 11 11 11 10 10 9 8 9 9 9 9 9 8 9 8 8 8 8 8 7 7 7 7 7 6 7 6 6 7 6 6 7 7 8 9 7 7 7 8 8 9 8 8 10 9 9 9 9 10 12 11 11 10 9 10 12 14 15 17 18 20 20 20 20 21 22 22 22 22 22 23 24
14 13 12 13 12 13 13 14 13 13 13 13 12 12 12 11 11 11 10 9 9 9 9 9 9 8 9 9 9 8 8 8 8 8 7 8 7 7 7 6 7 6 6 6 7 7 7 9 8 7 7 8 8 9 9 9 8 8 8 8 9 10 10 11 10 10 13 15 16 17 17 19 19 20 20 19 19 20 21 22 23 24 24 24 25
15 14 14 13 13 14 14 14 13 13 13 13 12 12 13 12 11 11 11 11 10 10 10 10 10 9 9 9 9 9 9 9 9 8 8 8 8 8 8 7 6 6 6 7 7 7 8 8 9 9 7 8 8 8 8 8 9 8 8 9 9 9 8 9 9 9 10 12 11 12 10 10 15 18 19 19 20 21 22 23 24 24 24 24 24
16 15 15 15 13 14 14 13 14 14 13 13 12 12 12 12 12 12 12 12 11 11 11 11 11 11 11 10 10 10 10 9 9 9 8 8 7 8 7 7 7 7 7 7 7 7 8 9 9 9 9 8 7 7 7 7 8 9 10 10 10 8 7 6 5 6 10 15 16 16 14 15 19 18 17 18 19 21 22 23 24 25 25 25 23
16 16 16 16 14 14 14 14 13 13 13 13 13 12 12 12 12 12 12 12 12 12 11 11 12 12 12 12 12 11 11 10 10 9 9 8 7 8 7 7 7 7 7 7 7 7 7 8 8 8 7 7 7 8 8 7 8 7 7 9 10 10 9 7 7 9 9 10 14 14 10 9 12 15 17 17 19 21 22 22 23 24 25 23 23
15 16 16 16 15 15 14 14 14 13 13 13 12 12 13 13 12 13 13 12 12 11 11 12 12 11 11 11 11 12 11 12 12 9 9 6 7 7 7 7 7 7 7 7 6 7 7 8 8 7 8 8 8 8 8 7 8 9 8 8 9 9 10 11 8 8 9 11 11 12 12 10 12 12 13 12 12 13 15 20 18 22 23 21 22
14 14 14 14 16 15 15 15 14 13 12 11 12 16 14 12 13 11 11 12 12 11 11 11 11 12 12 11 11 13 12 14 14 12 11 7 6 7 6 6 7 7 7 7 7 7 7 8 8 8 9 9 8 7 8 9 8 7 7 7 9 11 11 12 10 6 7 9 10 10 11 10 12 14 13 14 14 12 12 12 8 8 12 18 21
14 13 13 16 15 15 16 15 15 14 12 12 16 17 16 15 12 12 11 11 12 11 12 11 10 11 11 11 11 10 8 10 12 15 14 13 12 12 12 10 7 5 6 8 8 8 8 8 8 8 9 10 9 8 9 10 10 7 6 8 10 11 11 13 15 9 4 7 9 11 12 9 10 13 13 13 15 15 15 13 15 14 13 13 14
13 14 15 15 14 15 15 15 15 14 13 13 17 18 17 16 13 11 12 11 11 12 12 12 11 10 11 11 11 10 10 11 11 11 13 15 15 15 15 13 12 12 11 9 7 8 8 8 8 9 9 10 9 8 9 9 8 9 9 9 9 10 12 12 12 12 9 9 11 12 14 8 7 9 12 12 13 13 15 15 17 16 16 16 14
15 14 14 15 15 14 14 14 15 15 14 14 17 19 18 17 17 12 11 11 12 12 12 12 12 10 10 10 10 9 10 11 11 12 11 12 14 17 15 13 12 13 14 13 12 10 9 9 9 10 10 10 11 9 7 9 8 9 7 9 9 10 10 11 12 11 11 11 12 12 12 9 8 10 11 12 13 13 14 16 16 15 15 15 16
14 15 16 15 14 14 14 13 13 12 12 13 19 19 19 18 18 13 11 11 12 12 12 12 11 12 12 11 10 10 10 9 8 9 10 10 10 10 9 8 9 13 14 16 16 16 14 11 11 10 10 10 11 10 9 8 9 9 9 10 11 10 11 11 12 13 13 11 11 10 13 12 12 13 13 12 13 12 11 15 17 16 17 16 14
15 14 15 15 14 14 15 15 13 13 11 16 19 20 19 20 18 14 13 12 11 10 10 11 11 11 11 11 11 11 10 9 9 9 10 10 9 8 9 10 11 11 10 11 11 11 10 10 12 13 12 11 12 11 10 5 4 6 7 9 11 11 11 12 11 11 10 6 7 9 13 14 12 13 12 12 14 14 14 16 20 19 15 17 19
14 13 13 14 15 15 15 15 15 14 10 18 19 21 20 20 18 11 12 13 11 10 10 11 11 10 11 11 10 11 10 9 10 11 10 9 9 10 9 10 9 10 10 11 13 13 12 12 13 13 12 7 5 7 6 4 4 5 6 7 8 9 9 9 8 8 9 8 8 9 10 12 11 14 15 14 13 14 14 14 16 15 24 26 24
15 14 14 14 13 14 15 14 15 12 12 15 19 20 20 20 14 10 12 11 11 11 10 10 10 11 11 11 11 10 11 10 10 12 12 9 10 9 8 8 8 8 8 7 13 18 16 17 17 17 6 5 9 11 12 11 8 6 6 7 8 8 8 10 10 9 9 10 8 8 9 11 11 13 15 13 12 14 14 12 11 14 19 21 19
15 15 14 13 13 14 15 16 16 14 13 13 21 20 20 20 17 13 11 11 11 10 10 11 10 10 12 13 13 12 11 11 11 12 12 10 10 10 9 9 9 9 8 8 6 10 12 5 4 8 9 12 11 12 11 11 10 5 5 7 9 9 9 9 11 11 11 9 6 10 10 11 12 11 13 12 12 10 11 11 10 12 14 14 16
14 13 13 13 13 13 15 16 14 16 14 13 21 21 21 22 18 12 11 11 11 10 10 10 10 10 10 11 14 13 11 10 9 13 13 12 10 10 10 9 9 9 8 6 8 4 7 7 7 6 7 6 6 7 8 11 14 9 7 8 8 7 8 10 10 10 10 8 8 12 11 11 12 12 12 13 13 10 8 10 12 12 13 12 12
Wind_Direction
120 109 92 13 72 100 94 104 108 158 167 224 223 158 148 149 141 123 65 108 143 351 266 120 129 123 113 125 114 110 104 105 107 120 132 130 132 132 139 137 135 135 135 132 130 126 129 130 129 130 128 125 128 128 132 128 126 122 125 114 119 108 131 120 9 347 326 339 346 335 333 327 327 322 321 324 328 331 333 336 337 343 346 347 345
119 128 122 136 150 120 157 240 64 14 232 196 237 180 163 150 119 145 167 188 102 322 304 37 162 127 131 121 128 118 118 114 113 122 135 129 125 135 143 142 140 141 142 139 133 138 136 136 136 133 134 139 140 143 143 146 137 141 144 138 152 172 275 247 282 296 295 308 328 321 317 316 317 319 319 321 323 326 327 331 333 337 338 341 339
119 125 139 158 139 132 191 100 177 210 204 270 286 239 175 163 166 181 186 187 185 191 154 235 209 126 129 124 123 126 116 125 130 131 137 134 125 139 147 147 147 148 149 141 140 131 139 143 143 145 148 151 151 154 154 168 174 178 170 175 223 239 254 275 272 295 310 311 310 315 311 312 313 315 311 312 315 317 322 325 329 327 332 333 337
118 136 136 138 136 158 158 170 193 181 183 219 219 218 187 151 206 201 167 189 192 183 188 199 140 174 128 111 133 125 124 161 130 109 109 109 120 130 150 152 152 154 152 148 146 149 147 150 154 155 159 176 176 195 199 199 223 244 236 212 233 250 248 260 263 266 283 291 291 305 302 303 309 308 309 308 313 314 318 325 324 326 330 332 335
140 138 144 151 129 151 154 147 185 180 190 177 192 194 168 152 196 252 246 195 186 174 35 87 1 271 154 135 100 74 94 100 106 153 122 135 134 133 140 149 153 160 158 159 160 157 162 160 165 172 169 180 201 197 209 213 211 220 228 233 250 247 254 253 262 258 269 286 295 300 303 301 302 311 313 315 312 315 318 317 321 328 331 333 338
108 63 41 109 132 164 129 163 189 219 153 163 161 183 157 154 151 212 213 162 111 121 175 164 178 165 90 101 118 131 134 114 128 100 155 143 125 145 146 145 156 170 162 173 173 175 175 172 173 177 183 191 193 210 206 215 222 222 229 239 245 251 256 260 261 277 282 285 293 293 302 308 309 312 315 313 313 315 314 320 325 332 336 337 346
152 137 193 133 126 134 171 179 138 213 178 116 210 203 156 147 165 210 236 161 148 142 155 213 124 129 113 101 111 129 101 98 87 110 106 107 155 145 138 159 165 173 166 171 180 183 187 187 192 187 191 195 202 205 213 215 225 228 248 251 248 263 278 280 279 272 273 279 284 292 300 305 306 312 311 317 319 314 315 319 328 337 338 340 350
127 159 40 90 149 125 142 72 77 188 144 115 155 135 91 88 153 167 135 146 164 117 93 95 122 130 113 113 106 114 123 116 148 152 125 166 152 149 158 154 153 163 155 175 178 179 189 192 196 202 203 204 204 209 218 221 223 225 238 246 249 258 259 264 274 276 278 276 285 291 293 298 304 304 312 319 324 334 324 328 328 333 335 345 358
124 154 114 99 77 96 83 111 171 176 164 168 106 88 114 128 108 113 120 161 161 146 139 154 131 137 140 133 105 100 129 135 133 124 133 131 147 162 162 151 156 149 162 174 180 177 185 196 198 201 209 208 208 218 225 238 227 239 236 235 241 243 247 253 254 259 262 269 274 283 284 286 296 302 302 313 319 335 328 329 322 325 336 348 4
151 187 127 193 167 134 137 142 123 129 102 87 83 100 106 113 132 131 123 224 92 125 140 134 148 159 162 114 133 124 88 119 96 149 147 153 162 134 165 161 172 183 155 177 178 181 177 190 197 198 203 207 209 208 216 217 229 230 235 242 249 250 250 245 238 242 254 257 261 265 274 275 276 283 295 306 310 312 314 325 324 302 305 335 20
169 186 192 84 180 131 161 129 132 46 122 143 110 93 87 98 108 133 209 66 84 86 115 133 156 154 139 135 114 108 119 104 179 159 137 154 134 172 164 164 171 174 188 165 175 172 186 174 180 192 200 206 205 207 207 216 217 217 226 231 232 235 241 246 241 238 242 246 247 254 257 254 253 272 291 289 286 274 270 296 315 312 277 43 24
181 180 236 84 55 24 110 131 101 117 56 59 68 89 90 107 120 121 162 155 145 169 141 155 127 105 72 115 122 122 108 103 166 203 144 166 160 198 154 167 159 204 155 201 163 155 159 154 164 178 192 194 205 198 202 209 208 211 217 219 219 224 232 238 242 234 235 233 237 244 230 235 253 264 269 263 251 240 258 282 296 311 300 67 11
176 188 209 156 136 191 125 119 111 95 93 69 56 67 75 81 98 248 127 196 134 165 83 59 97 143 142 176 120 169 154 190 260 182 186 151 142 173 132 156 151 176 165 136 165 199 154 166 189 178 165 167 193 200 202 201 204 207 211 210 219 226 231 238 238 227 223 232 239 216 200 214 242 251 248 250 244 256 265 270 269 272 229 310 231
178 194 191 185 210 129 140 111 117 106 87 75 76 81 85 81 118 136 229 105 142 58 80 179 179 174 144 127 161 158 95 206 195 203 160 153 153 133 161 175 160 161 174 147 196 202 162 151 186 89 124 172 174 181 195 201 204 204 205 213 218 225 229 237 248 228 228 242 244 185 202 209 226 239 234 234 244 260 262 253 255 244 248 261 232
188 189 194 203 204 181 140 157 130 115 132 127 97 78 82 105 129 159 134 168 101 111 158 312 276 95 87 158 144 162 154 251 232 193 165 148 149 162 157 185 129 163 162 172 135 143 72 106 91 158 102 164 249 179 190 192 172 187 202 204 214 224 231 242 243 236 240 237 233 194 211 210 229 238 240 234 238 249 244 245 241 238 247 240 246
193 194 194 202 199 195 180 95 159 125 120 128 112 101 96 122 121 112 282 159 154 139 149 113 354 16 151 92 105 131 141 163 156 188 155 122 188 152 140 176 129 82 109 185 146 82 111 133 156 144 197 230 312 229 233 157 159 181 192 196 199 205 223 229 238 245 239 243 212 195 210 218 231 238 241 233 236 238 244 237 238 242 244 242 232
192 192 207 187 198 192 195 153 136 178 119 114 157 107 110 99 126 168 196 336 128 121 138 150 108 7 57 176 118 109 49 57 83 15 312 153 170 116 81 257 116 118 238 68 63 178 205 145 154 162 190 189 197 241 270 154 166 185 188 196 193 200 210 222 228 237 250 255 207 204 217 230 238 243 247 244 240 244 242 247 246 246 239 235 239
194 197 205 186 184 194 201 196 161 167 163 153 147 146 145 123 140 167 137 121 11 129 134 71 112 105 165 162 351 36 28 31 357 78 345 354 95 145 124 184 121 141 174 174 185 161 197 177 159 180 193 205 186 215 223 211 202 217 209 185 191 194 205 213 225 231 237 243 250 234 230 233 238 241 243 246 243 242 246 243 242 236 237 242 230
194 198 198 193 185 187 198 220 195 166 173 159 165 152 171 128 147 144 182 98 168 103 152 143 124 185 199 211 128 39 60 15 53 129 98 32 342 240 147 124 147 152 173 210 170 180 167 333 182 171 168 192 188 188 203 202 179 187 101 149 178 187 199 205 215 227 233 236 243 244 234 235 231 234 236 239 242 241 240 240 235 237 239 234 227
197 192 201 191 195 191 197 215 209 194 165 191 150 144 143 195 159 128 171 143 144 185 154 137 159 196 111 34 96 62 65 358 52 28 6 60 88 330 194 163 197 180 179 190 191 142 152 194 235 173 178 185 195 192 221 196 202 193 178 164 185 194 200 209 216 222 229 233 236 238 234 230 232 228 229 233 236 238 238 235 235 233 233 229 228
202 186 194 194 192 203 199 212 201 203 184 197 175 161 175 151 144 164 161 175 166 140 170 321 289 120 110 138 47 176 196 50 100 164 7 33 124 113 62 49 329 38 25 347 24 199 167 175 176 306 215 183 184 207 226 203 196 205 194 169 187 196 203 208 214 219 222 226 229 229 230 230 229 230 229 229 230 233 234 233 231 231 229 228 227
197 197 187 194 195 199 206 203 204 199 198 210 160 148 166 166 176 164 167 176 164 152 179 159 273 75 101 111 148 55 53 164 208 169 118 348 343 336 123 141 138 149 241 198 52 294 277 215 202 214 201 180 180 193 217 218 210 209 186 169 188 198 205 208 211 216 219 221 224 223 224 225 226 227 227 227 226 226 228 228 229 228 228 227 226
200 194 198 195 197 201 208 199 207 181 204 185 200 187 176 177 169 170 174 169 175 177 185 157 152 171 153 181 202 206 171 165 74 17 95 161 335 298 313 31 24 110 114 1 312 264 246 238 236 252 85 310 254 210 201 215 215 210 150 174 186 198 204 209 213 215 217 220 219 221 222 223 224 224 225 225 225 226 225 225 225 227 227 228 228
210 202 198 199 195 200 211 207 200 196 183 195 207 218 205 159 156 172 176 181 179 180 188 184 183 175 228 182 190 214 146 222 261 140 189 39 323 314 300 87 8 350 60 176 220 258 297 307 274 264 205 232 223 231 234 228 215 151 169 182 194 200 206 211 213 217 219 220 222 223 224 224 225 225 224 226 226 226 226 226 225 226 228 228 228
207 215 201 197 189 199 203 208 203 203 199 185 194 207 260 187 147 178 181 180 188 182 194 192 200 196 206 206 204 182 152 159 102 268 112 127 209 270 343 29 263 249 46 18 320 310 275 251 178 213 137 204 244 225 249 233 247 169 200 189 199 203 213 215 219 220 221 223 224 225 226 226 227 227 227 228 229 228 228 229 228 227 228 229 229
205 207 213 197 199 192 199 205 204 199 199 196 197 193 197 239 176 188 198 190 191 190 202 199 200 213 242 282 217 175 217 197 162 210 229 194 238 294 20 328 289 344 195 226 202 275 194 171 201 138 266 252 227 221 219 246 255 174 198 221 196 207 211 217 221 224 224 224 226 226 226 226 226 227 228 230 230 232 231 231 231 230 230 230 230
206 199 206 196 208 192 193 202 197 197 195 193 196 196 196 209 223 199 229 180 200 199 204 209 200 204 198 200 274 289 0 338 252 181 297 287 332 10 10 318 325 312 328 332 215 215 267 166 243 164 171 165 255 254 246 240 267 159 199 225 238 203 217 215 221 222 225 227 227 228 229 230 230 229 229 229 230 231 231 230 230 231 231 232 231
199 201 194 198 199 202 192 200 196 195 196 198 201 197 194 206 210 209 218 207 193 203 217 210 219 200 209 209 216 264 192 225 352 13 339 358 9 6 255 239 288 305 340 312 317 272 189 220 195 165 164 195 207 242 225 246 262 174 196 223 243 232 209 218 220 223 225 227 230 232 233 233 233 234 231 229 229 229 230 229 229 230 231 231 232
194 196 195 196 198 201 200 197 197 198 196 200 202 204 199 204 204 215 216 222 194 204 213 215 233 205 206 203 214 222 264 22 283 269 55 356 292 288 296 295 303 288 293 310 304 312 334 322 327 173 187 176 216 253 245 233 236 186 223 231 244 254 225 213 221 224 226 228 230 232 233 235 236 235 235 233 233 232 229 230 229 230 231 231 233
201 192 195 194 198 198 199 201 200 197 203 202 201 203 203 210 207 209 215 226 214 205 212 221 214 237 226 208 193 220 203 207 205 230 208 204 226 233 239 239 225 257 289 289 291 294 289 281 284 116 188 230 226 225 233 242 225 210 249 260 263 263 261 227 219 224 225 228 230 231 233 234 235 236 236 237 237 237 236 234 233 231 231 231 231
195 193 188 196 196 195 200 200 198 201 200 204 198 204 205 214 210 206 206 210 222 215 212 218 228 215 225 233 215 230 232 243 233 205 200 208 224 242 245 241 239 244 259 267 282 266 289 291 299 303 299 254 274 277 268 260 231 207 242 253 255 258 263 266 242 229 232 234 234 235 235 236 237 237 238 239 239 240 239 238 237 235 233 232 231
195 191 194 197 195 197 198 204 202 200 201 202 203 203 207 214 219 219 199 198 211 218 222 212 227 210 213 223 222 229 225 234 237 249 222 224 244 243 227 225 232 239 240 254 259 273 278 287 295 294 276 273 274 280 282 282 256 192 237 251 255 255 261 257 256 243 235 235 238 239 241 241 239 239 240 241 241 242 242 242 241 241 239 238 237
194 192 196 198 194 197 203 204 208 203 199 201 200 203 207 211 220 225 229 194 207 216 222 232 227 219 218 218 220 220 228 230 233 237 235 217 216 232 247 245 242 231 231 239 259 271 272 270 280 283 289 290 282 278 279 274 273 260 232 235 241 253 260 262 266 256 239 236 238 240 241 241 240 239 239 240 242 244 245 246 245 244 244 243 242
196 194 195 199 197 198 200 201 206 207 199 199 202 204 207 209 213 211 215 219 205 216 219 221 228 234 214 221 224 224 217 231 237 237 244 249 222 221 221 231 240 245 228 246 257 272 282 284 279 282 287 283 280 271 272 279 280 282 281 281 279 272 269 268 265 269 256 241 234 241 243 244 244 243 242 241 242 243 244 244 243 243 243 242 241
196 200 194 201 195 198 200 197 198 203 204 200 204 206 206 208 212 221 214 208 212 216 217 220 222 221 227 219 222 224 225 225 228 241 247 251 260 263 248 238 240 249 251 242 254 266 279 285 287 285 283 292 294 299 295 291 289 283 279 275 276 277 278 280 283 287 282 264 249 240 241 244 245 245 244 242 241 242 244 246 246 246 245 244 241
193 199 199 199 195 195 199 197 195 199 199 203 202 204 207 208 211 215 221 218 213 216 222 221 220 220 223 224 228 226 225 225 229 235 238 239 241 242 257 258 262 259 263 265 258 266 272 281 281 279 285 286 286 286 288 287 286 286 288 293 286 280 279 283 286 286 290 291 276 262 252 248 249 249 248 246 245 246 246 248 249 248 246 245 244
196 193 199 199 196 194 198 197 196 196 198 199 201 204 204 207 210 213 214 218 221 218 220 224 226 224 222 226 226 226 228 231 227 228 231 238 238 243 239 241 242 248 248 249 251 253 264 269 277 278 282 280 281 282 282 286 290 288 286 284 287 285 284 285 289 288 286 273 262 257 259 261 257 254 251 249 247 245 245 245 246 246 245 244 244
200 193 195 198 197 195 198 197 197 195 197 198 199 205 206 205 208 213 212 216 219 220 220 221 223 223 227 225 229 229 227 227 233 231 232 232 234 238 246 249 252 251 247 247 249 254 259 265 274 281 275 278 281 281 283 284 289 298 294 282 276 271 268 272 283 294 301 302 308 302 285 263 259 255 254 252 247 243 242 242 243 244 246 246 245
200 199 193 197 197 197 197 199 198 196 197 199 198 201 208 209 205 209 215 212 215 218 220 223 224 222 222 225 224 226 227 227 229 232 231 234 237 241 239 246 248 251 255 254 255 255 258 265 267 268 276 274 282 295 297 290 281 276 285 287 283 281 278 293 290 281 289 295 290 279 273 273 277 278 274 259 246 243 243 242 242 242 244 244 245
200 201 196 193 196 197 196 199 199 197 196 200 199 200 203 207 207 205 212 216 213 215 220 220 225 227 223 223 225 220 222 223 226 229 234 234 235 238 238 241 244 246 252 260 260 263 264 269 273 282 290 295 285 278 284 280 278 275 278 295 302 310 307 297 300 304 295 291 295 300 296 276 256 259 258 256 256 253 247 245 245 245 245 245 243
199 201 203 194 194 199 197 198 199 200 198 200 201 199 199 202 207 207 207 212 216 215 216 220 222 228 232 229 228 230 213 208 217 228 238 238 235 235 237 240 244 244 248 252 256 255 263 265 274 276 274 275 277 276 274 275 289 301 310 312 306 309 312 310 308 301 290 290 283 288 294 307 303 297 299 299 288 268 256 244 246 245 245 245 244
199 201 203 201 195 198 200 199 201 202 203 201 197 195 196 199 203 207 204 208 213 215 217 221 225 223 227 235 237 224 214 193 196 204 219 226 236 250 249 239 240 245 246 250 253 256 259 266 268 273 276 277 284 285 292 295 298 307 312 317 316 318 314 306 302 302 307 294 301 298 297 303 301 297 294 294 293 284 285 288 288 270 239 235 238
200 198 203 204 204 199 201 201 201 205 205 206 185 187 192 201 202 205 206 204 208 214 216 217 227 231 231 229 238 232 202 184 189 193 201 210 215 230 246 255 272 278 266 255 254 259 265 271 271 271 273 277 282 293 295 297 295 313 313 325 325 320 316 316 314 311 277 308 304 302 295 295 291 289 294 289 290 294 296 293 295 293 279 259 246
197 200 201 204 206 205 203 203 204 206 209 201 174 181 187 194 205 206 207 209 206 210 214 217 218 225 231 234 233 236 230 219 213 194 202 206 214 224 230 237 244 254 250 254 270 272 268 272 275 275 281 281 287 290 291 294 316 312 313 324 318 312 310 306 303 303 309 321 311 298 291 295 288 284 286 291 296 300 298 299 297 291 285 276 260
195 200 200 202 205 209 208 204 207 206 213 185 171 178 183 190 200 215 211 211 213 211 212 215 220 221 225 230 238 238 245 204 205 218 199 205 215 220 225 231 240 240 246 248 244 249 270 272 274 279 276 285 283 279 290 305 315 298 307 304 310 307 299 294 291 297 307 311 300 295 296 304 304 300 301 298 301 302 301 297 298 303 300 289 279
196 199 202 202 205 207 212 213 210 212 215 162 172 176 182 188 195 205 223 218 218 219 216 217 217 219 221 225 224 230 234 235 223 217 225 218 204 208 219 226 232 234 231 235 238 237 238 250 258 265 270 266 270 273 282 290 292 293 299 299 303 297 290 283 290 292 289 289 282 292 295 307 317 312 304 305 307 304 301 308 308 305 301 302 296
196 197 202 202 204 206 209 214 215 213 218 158 172 175 181 187 192 199 217 226 227 224 223 221 222 222 219 222 226 226 225 228 231 221 221 224 224 210 201 215 224 235 229 222 218 219 216 225 238 249 259 267 271 278 285 305 281 278 279 287 290 284 278 282 283 272 275 275 302 312 303 310 314 309 311 320 323 317 318 321 326 321 339 341 336
199 197 202 206 202 205 207 211 216 214 203 161 173 175 178 187 185 194 213 226 235 234 225 225 223 221 224 224 224 226 226 223 219 210 215 221 222 225 227 231 237 239 236 223 197 200 206 208 221 232 245 290 351 314 330 309 288 285 295 296 290 280 280 288 296 309 312 332 324 308 307 315 325 320 319 321 321 315 318 312 310 347 353 344 341
199 199 201 204 204 206 207 208 215 214 214 170 171 177 177 181 174 198 208 218 230 234 235 227 224 224 222 222 224 226 223 225 213 191 205 201 229 233 233 240 248 252 254 253 183 192 201 213 208 223 256 295 284 289 290 295 285 312 309 297 292 306 314 314 314 322 328 326 334 14 335 317 331 327 315 317 321 312 309 316 325 351 341 326 322
204 202 204 206 206 208 208 209 208 211 218 169 174 174 178 175 180 195 204 212 221 226 233 233 228 226 226 219 221 223 227 227 204 182 186 188 220 228 234 242 244 245 247 252 241 199 203 211 242 232 241 242 235 249 265 276 284 284 290 287 302 315 311 313 316 319 315 316 16 15 343 325 325 318 311 310 308 305 312 316 329 323 320 316 320
209 207 205 207 209 208 211 213 204 209 219 181 174 173 178 179 184 198 199 209 215 217 222 226 227 233 232 223 217 222 224 229 187 178 178 187 214 220 229 237 240 244 247 248 253 185 165 202 207 210 238 247 255 256 251 247 252 243 240 260 289 295 307 315 309 305 311 332 11 25 339 325 321 316 318 318 314 314 313 319 320 329 326 320 317